Location: Asheville, NC
(35.6000°N, 82.5500°W)
Time: 06:10:27
(UTC-04:00)

Vanguard 1 Rocket - Visible Passes

Search period start: 22 July 2018 00:00
Search period end: 01 August 2018 00:00
Orbit: 652 x 4225 km, 34.3° (Epoch: 21 July)

Date Brightness Start Highest point End Pass type
(mag) Time Alt. Az. Time Alt. Az. Time Alt. Az.
22 Jul 11.7 04:16:54 10° SSE 04:28:10 15° SE 04:38:52 10° ESE visible
23 Jul 11.5 05:23:42 10° SSW 05:44:23 32° SE 06:01:49 10° E visible
24 Jul 11.6 04:14:38 10° S 04:30:30 21° SE 04:45:33 10° E visible
25 Jul 11.7 03:16:12 10° SE 03:17:00 10° SE 03:17:48 10° SE visible
25 Jul 11.3 05:24:22 10° SSW 05:46:40 39° SE 06:05:39 10° E visible
26 Jul 11.4 04:14:09 10° S 04:32:40 27° SE 04:50:30 10° E visible
27 Jul 11.5 03:07:27 10° SSE 03:19:11 16° SE 03:31:17 10° E visible
27 Jul 11.1 05:25:33 10° SSW 05:48:53 46° SE 06:09:09 10° E visible
28 Jul 11.2 04:17:03 14° S 04:34:44 34° SE 04:54:37 10° E visible
29 Jul 11.3 03:09:54 15° SSE 03:21:11 21° SE 03:37:27 10° E visible
29 Jul 11.0 05:27:11 10° SW 05:51:05 54° SE 06:12:24 10° ENE visible
30 Jul 11.1 04:19:59 19° SSW 04:36:43 41° SE 04:58:14 10° E visible
31 Jul 11.1 03:12:46 21° SSE 03:23:04 28° SE 03:42:07 10° E visible
31 Jul 10.9 05:30:03 12° SW 05:53:20 61° SSE 06:15:32 10° ENE visible
